This demonstration page uses our WeatherBlox Daily Observations layout. Learn more.

Left ArrowRight Arrow

Hourly Observations for May 18, 2020

Temp ( °F °C ) Dew Point ( °F °C ) Humidity (%) Winds ( mph kmh ) Pressure ( in mb ) Visibility ( mi km ) Precip ( " mm )
12:53 am 00:53 Clear 76 24.4 52 11.1 43 43 SE 12 19 29.79 1009 10 16 0.00 0.00
1:53 am 01:53 Clear 73 22.8 54 12.2 51 51 SE 10 17 29.78 1009 10 16 0.00 0.00
2:53 am 02:53 Clear 72 22.2 53 11.7 52 52 SE 9 15 29.77 1008 10 16 0.00 0.00
3:53 am 03:53 Clear 70 21.1 54 12.2 57 57 SE 10 17 29.76 1008 10 16 0.00 0.00
4:53 am 04:53 Clear 69 20.6 55 12.8 61 61 SE 8 13 29.76 1008 10 16 0.00 0.00
5:53 am 05:53 Clear 67 19.4 55 12.8 66 66 SE 7 11 29.75 1008 10 16 0.00 0.00
6:53 am 06:53 Clear 65 18.3 55 12.8 70 70 SE 3 6 29.77 1008 10 16 0.00 0.00
7:53 am 07:53 Sunny 69 20.6 56 13.3 63 63 E 3 6 29.79 1009 10 16 0.00 0.00
8:53 am 08:53 Sunny 73 22.8 56 13.3 55 55 ESE 6 9 29.81 1010 10 16 0.00 0.00
9:53 am 09:53 undefined N/A N/A N/A undefined N/A N/A N/A 0.00 0.00
10:53 am 10:53 undefined 86 30 57 13.9 37 37 E 3 6 29.81 1009 10 16 0.00 0.00
11:49 am 11:49 Mostly Sunny 91 33 50 10 24 24 SW 9 15 29.72 1006 10 16 0.00 0.00
11:53 am 11:53 Mostly Sunny 92 33.3 50 10 24 24 SW 8 13 29.79 1009 10 16 0.00 0.00
12:53 pm 12:53 Sunny 95 35 50 10 22 22 SSW 9 15 29.78 1008 10 16 0.00 0.00
1:53 pm 13:53 Sunny 100 37.8 45 7.2 15 15 VRB 5 7 29.75 1007 10 16 0.00 0.00
2:53 pm 14:53 Sunny 101 38.3 29 -1.7 8 8 VRB 6 9 29.72 1007 10 16 0.00 0.00
3:53 pm 15:53 Sunny 102 38.9 40 4.4 12 12 undefined N/A 29.69 1006 10 16 0.00 0.00
4:53 pm 16:53 Sunny 102 38.9 40 4.4 12 12 ESE 8 13 29.67 1005 10 16 0.00 0.00
5:53 pm 17:53 Sunny 102 38.9 38 3.3 11 11 SSE 6 9 29.65 1004 10 16 0.00 0.00
6:53 pm 18:53 Sunny 101 38.3 37 2.8 11 11 S 6 9 29.65 1004 10 16 0.00 0.00
7:53 pm 19:53 Sunny 100 37.8 38 3.3 12 12 SSE 10 17 29.65 1004 10 16 0.00 0.00
8:12 pm 20:12 Mostly Sunny 98 36.7 40 4.4 13 13 S 10 17 29.54 1000 10 16 0.00 0.00
8:53 pm 20:53 Clear 94 34.4 47 8.3 20 20 SSE 17 28 29.67 1005 10 16 0.00 0.00
9:53 pm 21:53 Clear 90 32.2 48 8.9 24 24 SE 12 19 29.68 1005 10 16 0.00 0.00
10:53 pm 22:53 Clear 87 30.6 50 10 28 28 SE 13 20 29.68 1005 10 16 0.00 0.00
11:53 pm 23:53 Clear 85 29.4 56 13.3 37 37 SSE 16 26 29.68 1005 10 16 0.00 0.00

Powered by AerisWeather